Weather History for Waukesha, WI

Change the Weather History Date:

Tuesday, February 7, 2012

  Actual Average Record
Temperature  
Mean Temperature 26 °F -  
Max Temperature 32 °F 27 °F 49 °F (1987)
Min Temperature 19 °F 11 °F -10 °F (1951)
Degree Days  
Heating Degree Days 40    
Moisture  
Dew Point 20 °F    
Average Humidity 82    
Maximum Humidity 100    
Minimum Humidity 68    
Precipitation  
Precipitation 0.00 in - - ()
Sea Level Pressure  
Sea Level Pressure 30.33 in    
Wind  
Wind Speed 7 mph (North)    
Max Wind Speed 16 mph    
Max Gust Speed 26 mph    
Visibility 9 miles    
Events      
Averages and records for this station are not official NWS values.
T = Trace of Precipitation, MM = Missing Value Source: NWS Daily Summary

Daily Weather History Graph

Daily Weather History Graph

Search for Another Location

Airport:

Trip Planner

Search our weather history database for the weather conditions in past years. The results will help you decide how hot, cold, wet, or windy it might be!

Date:

Astronomy

Feb. 07, 2012 Rise Set
Actual Time 7:01 AM CST 5:12 PM CST
Civil Twilight 6:32 AM CST 5:42 PM CST
Nautical Twilight 5:58 AM CST 6:16 PM CST
Astronomical Twilight 5:25 AM CST 6:49 PM CST
Moon 5:25 PM CST (2/7) 6:29 AM CST (2/7)
Length of Visible Light 11h 10m
Length of Day
10h 11m
Full, 100% of the Moon is Illuminated
Feb 7
Full
Feb 7
Full
Feb 14
Last Quarter
Feb 21
New
Feb 29
First Quarter

Hourly Weather History & Observations

Time (CST) Temp. Windchill Dew Point Humidity Pressure Visibility Wind Dir Wind Speed Gust Speed Precip Events Conditions
12:15 AM 24.8 °F - 23.0 °F 93% 30.16 in 5.0 mi Calm Calm - N/A   Clear
12:35 AM 26.6 °F 21.2 °F 26.6 °F 100% 30.17 in 5.0 mi WNW 4.6 mph - N/A   Mostly Cloudy
12:55 AM 28.4 °F 23.3 °F 26.6 °F 93% 30.17 in 5.0 mi NW 4.6 mph - N/A   Overcast
1:15 AM 28.4 °F 24.6 °F 26.6 °F 93% 30.17 in 5.0 mi NW 3.5 mph - N/A   Overcast
1:35 AM 28.4 °F 24.6 °F 26.6 °F 93% 30.18 in 7.0 mi NW 3.5 mph - N/A   Overcast
1:55 AM 28.4 °F 23.3 °F 28.4 °F 100% 30.19 in 7.0 mi WNW 4.6 mph - N/A   Overcast
2:15 AM 30.2 °F 26.7 °F 28.4 °F 93% 30.19 in 7.0 mi NW 3.5 mph - N/A   Overcast
2:35 AM 30.2 °F 25.4 °F 28.4 °F 93% 30.19 in 7.0 mi North 4.6 mph - N/A   Overcast
3:15 AM 32.0 °F 24.8 °F 30.2 °F 93% 30.20 in 10.0 mi NNE 8.1 mph - N/A   Overcast
3:35 AM 32.0 °F 22.5 °F 30.2 °F 93% 30.21 in 10.0 mi NNE 12.7 mph 18.4 mph N/A   Overcast
3:55 AM 32.0 °F 22.5 °F 30.2 °F 93% 30.22 in 10.0 mi NNE 12.7 mph 17.3 mph N/A   Overcast
4:15 AM 32.0 °F 22.5 °F 28.4 °F 87% 30.22 in 10.0 mi NE 12.7 mph 18.4 mph N/A   Overcast
4:35 AM 32.0 °F 21.2 °F 28.4 °F 87% 30.23 in 10.0 mi NE 16.1 mph 26.5 mph N/A   Overcast
5:45 AM 30.2 °F 20.8 °F 26.6 °F 86% 30.26 in 10.0 mi NNE 11.5 mph 20.7 mph N/A   Overcast
6:45 AM 28.4 °F 17.5 °F 24.8 °F 86% 30.30 in 10.0 mi NE 13.8 mph 24.2 mph N/A   Overcast
7:45 AM 28.4 °F 18.0 °F 21.2 °F 74% 30.33 in 10.0 mi NNE 12.7 mph 24.2 mph N/A   Overcast
8:45 AM 26.6 °F 14.3 °F 21.2 °F 80% 30.35 in 10.0 mi NE 16.1 mph 24.2 mph N/A   Overcast
9:45 AM 26.6 °F 15.2 °F 21.2 °F 80% 30.37 in 10.0 mi NNE 13.8 mph 23.0 mph N/A   Overcast
10:45 AM 26.6 °F 16.2 °F 21.2 °F 80% 30.39 in 10.0 mi NNE 11.5 mph 20.7 mph N/A   Overcast
11:45 AM 26.6 °F 16.2 °F 21.2 °F 80% 30.39 in 10.0 mi NNE 11.5 mph 23.0 mph N/A   Overcast
12:45 PM 26.6 °F 16.2 °F 19.4 °F 74% 30.38 in 10.0 mi NNE 11.5 mph 23.0 mph N/A   Overcast
2:45 PM 26.6 °F 16.2 °F 17.6 °F 69% 30.39 in 10.0 mi North 11.5 mph - N/A   Overcast
3:45 PM 24.8 °F 14.0 °F 17.6 °F 74% 30.40 in 10.0 mi North 11.5 mph - N/A   Overcast
4:15 PM 24.8 °F 14.0 °F 15.8 °F 69% 30.40 in 10.0 mi NNE 11.5 mph - N/A   Overcast
4:45 PM 24.8 °F 14.0 °F 15.8 °F 69% 30.40 in 10.0 mi NNE 11.5 mph - N/A   Overcast
5:45 PM 23.0 °F 11.7 °F 14.0 °F 68% 30.41 in 10.0 mi North 11.5 mph - N/A   Overcast
6:45 PM 23.0 °F 13.1 °F 14.0 °F 68% 30.43 in 10.0 mi NNE 9.2 mph - N/A   Overcast
7:45 PM 21.2 °F 12.6 °F 14.0 °F 74% 30.43 in 10.0 mi North 6.9 mph - N/A   Clear
8:15 PM 21.2 °F 14.9 °F 14.0 °F 74% 30.42 in 10.0 mi NNW 4.6 mph - N/A   Mostly Cloudy
8:35 PM 21.2 °F 14.9 °F 14.0 °F 74% 30.42 in 10.0 mi North 4.6 mph - N/A   Scattered Clouds
8:45 PM 19.4 °F 10.4 °F 12.2 °F 74% 30.42 in 10.0 mi NNW 6.9 mph - N/A   Scattered Clouds
8:55 PM 19.4 °F 12.8 °F 14.0 °F 80% 30.42 in 10.0 mi NNW 4.6 mph - N/A   Clear
9:15 PM 19.4 °F 11.5 °F 14.0 °F 80% 30.42 in 10.0 mi NW 5.8 mph - N/A   Scattered Clouds
9:35 PM 19.4 °F 12.8 °F 14.0 °F 80% 30.42 in 10.0 mi NW 4.6 mph - N/A   Scattered Clouds
9:55 PM 19.4 °F 11.5 °F 14.0 °F 80% 30.42 in 10.0 mi NW 5.8 mph - N/A   Scattered Clouds
10:15 PM 19.4 °F 11.5 °F 14.0 °F 80% 30.42 in 10.0 mi WNW 5.8 mph - N/A   Mostly Cloudy
10:35 PM 19.4 °F 11.5 °F 14.0 °F 80% 30.42 in 10.0 mi NW 5.8 mph - N/A   Mostly Cloudy
10:55 PM 19.4 °F 12.8 °F 14.0 °F 80% 30.42 in 10.0 mi WNW 4.6 mph - N/A   Mostly Cloudy
11:15 PM 19.4 °F 12.8 °F 14.0 °F 80% 30.42 in 10.0 mi WNW 4.6 mph - N/A   Overcast
11:55 PM 19.4 °F 12.8 °F 14.0 °F 80% 30.42 in 10.0 mi NW 4.6 mph - N/A   Overcast